Malaga, Spain

10:55 AM CEST on August 21, 2017 (GMT +0200)
Malaga

Weather History for LEMG - January, 2014

Change the Weather History Date:

Saturday, January 4, 2014

  Actual Average Record
Temperature  
Mean Temperature 62 °F -  
Max Temperature 72 °F 59 °F 75 °F (2016)
Min Temperature 51 °F 43 °F 39 °F (2006)
Degree Days  
Heating Degree Days 4    
Growing Degree Days 12 (Base 50)    
Moisture  
Dew Point 50 °F    
Average Humidity 70    
Maximum Humidity 94    
Minimum Humidity 25    
Precipitation  
Precipitation 0.00 in 0.11 in - ()
Sea Level Pressure  
Sea Level Pressure 30.17 in    
Wind  
Wind Speed 4 mph ()    
Max Wind Speed 23 mph    
Max Gust Speed 36 mph    
Visibility 6.8 miles    
Events      
Averages and records for this station are not official NWS values.
T = Trace of Precipitation, MM = Missing Value Source: Averaged Metar Reports

Daily Weather History Graph

Daily Weather History Graph

Search for Another Location

Airport or City:

Trip Planner

Search our weather history database for the weather conditions in past years. The results will help you decide how hot, cold, wet, or windy it might be!

Date:

Astronomy

Jan. 04, 2014 Rise Set
Actual Time 8:30 AM CET 6:15 PM CET
Civil Twilight 8:02 AM CET 6:43 PM CET
Nautical Twilight 7:29 AM CET 7:16 PM CET
Astronomical Twilight 6:58 AM CET 7:47 PM CET
Moon 10:33 AM CET (1/4) 10:11 PM CET (1/4)
Length of Visible Light 10h 41m
Length of Day
9h 44m
Waxing Crescent, 13% of the Moon is Illuminated
Jan 4
Waxing Crescent
Jan 8
First Quarter
Jan 16
Full
Jan 24
Last Quarter
Jan 30
New

Hourly Weather History & Observations

Time (CET) Temp. Dew Point Humidity Pressure Visibility Wind Dir Wind Speed Gust Speed Precip Events Conditions
12:00 AM 58 °F 53 °F 78% 30.21 in - Calm Calm - -  
12:00 AM 57.2 °F 53.6 °F 88% 30.18 in 6.2 mi Calm Calm - N/A   Scattered Clouds
12:30 AM 57.2 °F 53.6 °F 88% 30.18 in 6.2 mi NW 1.2 mph - N/A   Scattered Clouds
1:00 AM 57 °F 52 °F 79% 30.19 in 9 mi West 4.6 mph - -   Partly Cloudy
1:00 AM 55.4 °F 51.8 °F 88% 30.18 in 6.2 mi WNW 3.5 mph - N/A   Scattered Clouds
1:30 AM 55.4 °F 51.8 °F 88% 30.18 in 6.2 mi WNW 3.5 mph - N/A   Scattered Clouds
2:00 AM 57 °F 52 °F 79% 30.18 in - WSW 3.5 mph - -  
2:00 AM 57.2 °F 53.6 °F 88% 30.15 in 6.2 mi WSW 2.3 mph - N/A   Scattered Clouds
2:30 AM 55.4 °F 53.6 °F 94% 30.15 in 6.2 mi North 1.2 mph - N/A   Scattered Clouds
3:00 AM 57 °F 52 °F 79% 30.18 in - NW 2.3 mph - -  
3:00 AM 55.4 °F 51.8 °F 88% 30.15 in 6.2 mi NW 2.3 mph - N/A   Scattered Clouds
3:30 AM 55.4 °F 51.8 °F 88% 30.15 in 6.2 mi SW 1.2 mph - N/A   Scattered Clouds
4:00 AM 56 °F 52 °F 83% 30.17 in 9 mi Calm Calm - -   Partly Cloudy
4:00 AM 55.4 °F 51.8 °F 88% 30.15 in 6.2 mi Calm Calm - N/A   Scattered Clouds
4:30 AM 53.6 °F 51.8 °F 94% 30.15 in 6.2 mi WNW 2.3 mph - N/A   Scattered Clouds
5:00 AM 56 °F 51 °F 80% 30.17 in - Calm Calm - -  
5:00 AM 55.4 °F 51.8 °F 88% 30.15 in 6.2 mi Calm Calm - N/A   Scattered Clouds
5:30 AM 53.6 °F 51.8 °F 94% 30.15 in 6.2 mi Variable 2.3 mph - N/A   Scattered Clouds
6:00 AM 55 °F 52 °F 84% 30.16 in - NW 1.2 mph - -  
6:00 AM 53.6 °F 50.0 °F 88% 30.15 in 6.2 mi NW 1.2 mph - N/A   Scattered Clouds
6:30 AM 53.6 °F 50.0 °F 88% 30.15 in 6.2 mi NNW 2.3 mph - N/A   Scattered Clouds
7:00 AM 54 °F 51 °F 86% 30.15 in 9 mi NW 1.2 mph - -   Partly Cloudy
7:00 AM 53.6 °F 50.0 °F 88% 30.12 in 6.2 mi NW 2.3 mph - N/A   Scattered Clouds
7:30 AM 51.8 °F 50.0 °F 94% 30.12 in 6.2 mi Variable 2.3 mph - N/A   Scattered Clouds
8:00 AM 55 °F 52 °F 86% 30.17 in - WNW 5.8 mph - -  
8:00 AM 53.6 °F 51.8 °F 94% 30.15 in 6.2 mi NW 4.6 mph - N/A   Scattered Clouds
8:30 AM 55.4 °F 51.8 °F 88% 30.15 in 5.0 mi West 5.8 mph - N/A   Light Drizzle
9:00 AM 56 °F 54 °F 89% 30.20 in - West 2.3 mph - -   Unknown Precipitation
9:00 AM 55.4 °F 53.6 °F 94% 30.18 in 6.2 mi WNW 2.3 mph - N/A   Mostly Cloudy
9:30 AM 55.4 °F 53.6 °F 94% 30.18 in 6.2 mi Calm Calm - N/A   Scattered Clouds
10:00 AM 57 °F 55 °F 91% 30.21 in 19 mi NNW 1.2 mph - -   Partly Cloudy
10:00 AM 57.2 °F 55.4 °F 94% 30.21 in 6.2 mi Variable 1.2 mph - N/A   Scattered Clouds
10:30 AM 59.0 °F 57.2 °F 94% 30.21 in 6.2 mi Calm Calm - N/A   Scattered Clouds
11:00 AM 61 °F 55 °F 76% 30.22 in - Calm Calm - -  
11:00 AM 60.8 °F 55.4 °F 82% 30.21 in 6.2 mi NNE 1.2 mph - N/A   Scattered Clouds
11:30 AM 64.4 °F 57.2 °F 77% 30.21 in 6.2 mi Calm Calm - N/A   Partly Cloudy
12:00 PM 67 °F 55 °F 56% 30.19 in - SSE 3.5 mph - -  
12:00 PM 64.4 °F 57.2 °F 77% 30.18 in 6.2 mi SSE 3.5 mph - N/A   Partly Cloudy
12:30 PM 64.4 °F 55.4 °F 73% 30.18 in 6.2 mi SE 4.6 mph - N/A   Partly Cloudy
1:00 PM 68 °F 53 °F 48% 30.18 in 25 mi NNE 2.3 mph - -   Partly Cloudy
1:00 PM 66.2 °F 53.6 °F 64% 30.18 in 6.2 mi NNE 1.2 mph - N/A   Partly Cloudy
1:30 PM 68.0 °F 53.6 °F 60% 30.15 in 6.2 mi ENE 3.5 mph 19.6 mph N/A   Partly Cloudy
2:00 PM 71 °F 51 °F 39% 30.14 in - WSW 2.3 mph - -  
2:00 PM 69.8 °F 53.6 °F 56% 30.12 in 6.2 mi West 1.2 mph - N/A   Partly Cloudy
2:30 PM 69.8 °F 48.2 °F 46% 30.09 in 6.2 mi SW 12.7 mph - N/A   Partly Cloudy
3:00 PM 71 °F 52 °F 40% 30.11 in - SSW 11.5 mph - -  
3:00 PM 69.8 °F 51.8 °F 53% 30.09 in 6.2 mi SW 11.5 mph - N/A   Partly Cloudy
3:30 PM 68.0 °F 48.2 °F 49% 30.09 in 6.2 mi SSW 13.8 mph - N/A   Partly Cloudy
4:00 PM 70 °F 50 °F 37% 30.11 in 22 mi SW 13.8 mph - -   Scattered Clouds
4:00 PM 68.0 °F 50.0 °F 52% 30.09 in 6.2 mi SW 12.7 mph - N/A   Partly Cloudy
4:30 PM 68.0 °F 48.2 °F 49% 30.12 in 6.2 mi SW 12.7 mph - N/A   Partly Cloudy
5:00 PM 70 °F 42 °F 25% 30.14 in - WSW 11.5 mph - -  
5:00 PM 68.0 °F 37.4 °F 33% 30.12 in 6.2 mi West 12.7 mph 24.2 mph N/A   Partly Cloudy
5:30 PM 68.0 °F 39.2 °F 35% 30.12 in 6.2 mi West 11.5 mph 24.2 mph N/A   Partly Cloudy
6:00 PM 65 °F 44 °F 35% 30.15 in - SSW 6.9 mph - -  
6:00 PM 64.4 °F 44.6 °F 49% 30.12 in 6.2 mi SSW 5.8 mph - N/A   Partly Cloudy
6:30 PM 64.4 °F 42.8 °F 45% 30.15 in 6.2 mi SSW 6.9 mph - N/A   Scattered Clouds
7:00 PM 64 °F 45 °F 39% 30.15 in 12 mi SSW 6.9 mph - -   Mostly Cloudy
7:00 PM 64.4 °F 46.4 °F 52% 30.12 in 6.2 mi SSW 4.6 mph - N/A   Mostly Cloudy
7:30 PM 66.2 °F 46.4 °F 49% 30.15 in 6.2 mi West 6.9 mph - N/A   Mostly Cloudy
8:00 PM 63 °F 51 °F 54% 30.19 in - NNW 18.4 mph - -  
8:00 PM 62.6 °F 50.0 °F 63% 30.18 in 6.2 mi NNW 18.4 mph - N/A   Mostly Cloudy
8:30 PM 60.8 °F 50.0 °F 68% 30.18 in 6.2 mi NNW 21.9 mph 35.7 mph N/A   Mostly Cloudy
9:00 PM 62 °F 49 °F 53% 30.23 in - NW 16.1 mph - -  
9:00 PM 60.8 °F 50.0 °F 68% 30.21 in 6.2 mi NW 16.1 mph 27.6 mph N/A   Mostly Cloudy
9:30 PM 60.8 °F 46.4 °F 59% 30.24 in 6.2 mi NW 18.4 mph 31.1 mph N/A   Mostly Cloudy
10:00 PM 61 °F 45 °F 45% 30.26 in 12 mi NW 18.4 mph - -   Mostly Cloudy
10:00 PM 59.0 °F 46.4 °F 63% 30.24 in 6.2 mi NW 17.3 mph - N/A   Mostly Cloudy
10:30 PM 59.0 °F 46.4 °F 63% 30.24 in 6.2 mi NW 23.0 mph - N/A   Mostly Cloudy
11:00 PM 60 °F 45 °F 46% 30.24 in - NW 18.4 mph - -  
11:00 PM 59.0 °F 44.6 °F 59% 30.21 in 6.2 mi NW 20.7 mph - N/A   Mostly Cloudy
11:30 PM 57.2 °F 44.6 °F 63% 30.24 in 6.2 mi WNW 15.0 mph - N/A   Mostly Cloudy